{"data":{"norad_id":69179,"intl_designator":"2026-112C","name":"ELECTRON R/B","alt_names":[],"object_type":"ROCKET_BODY","status":"UNKNOWN","operator":null,"country":"US","launch_date":"2026-05-22","launch_site_code":"RLLB","launch_vehicle":null,"mission":null,"orbit_class":"UNKNOWN","rcs_meters":null,"size_class":null,"mass_kg":null,"dimensions":null,"purposes":[],"wikipedia_slug":null,"has_3d_model":false,"image_url":null,"decayed_at":null,"tle_current":{"epoch":"2026-06-07T12:15:59.925600Z","epoch_age_seconds":9098183,"freshness":"OLD","line1":"1 69179U 26112C   26158.51111025  .16105530  11108-4  41966-3 0  9997","line2":"2 69179  44.8834 231.9745 0039810 356.6677   3.3977 16.40545372  2555","mean_motion":16.40545372,"eccentricity":0.003981,"inclination_deg":44.8834,"raan_deg":231.9745,"arg_perigee_deg":356.6677,"mean_anomaly_deg":3.3977,"bstar":0.00041966,"rev_number":255,"period_min":87.775688778695,"perigee_km":138.30649407862,"apogee_km":190.39779263804,"semimajor_km":6542.4891433583,"source":"CELESTRAK","updated_at":"2026-06-08T09:00:30.614110Z"}}}